Stations météo

réclame
Mon MeteoGroup
Fehmarn, Allemagne (10055): Température de l'air & dewpoint: 15.06.2018 19:00:00 - 21.06.2018 19:00:00 (CEST)Fehmarn, Allemagne (10055): Température de l'air 5cm & Température de l'air -5cm: 15.06.2018 19:00:00 - 21.06.2018 19:00:00 (CEST)Fehmarn, Allemagne (10055): Température de l'air -20cm & Température de l'air -100cm: 15.06.2018 19:00:00 - 21.06.2018 19:00:00 (CEST)Fehmarn, Allemagne (10055): Vitesse du vent & gusts: 15.06.2018 19:00:00 - 21.06.2018 19:00:00 (CEST)Fehmarn, Allemagne (10055): Direction du vent: 15.06.2018 19:00:00 - 21.06.2018 19:00:00 (CEST)Fehmarn, Allemagne (10055): reduced air pressure: 15.06.2018 19:00:00 - 21.06.2018 19:00:00 (CEST)Fehmarn, Allemagne (10055): visibility: 15.06.2018 19:00:00 - 21.06.2018 19:00:00 (CEST)Fehmarn, Allemagne (10055): Ensoleillement: 15.06.2018 19:00:00 - 21.06.2018 19:00:00 (CEST)Fehmarn, Allemagne (10055): Quantités de précipitations: 15.06.2018 19:00:00 - 21.06.2018 19:00:00 (CEST)
Date & Time tt [°C] td [°C] tt 5cm [°C] tt -5cm [°C] tt -20cm [°C] tt -100cm [°C] ff [km/h] ff [knt] fx [km/h] fx [knt] dd ppp [hPa] vv [km] sd [min] rr [mm]
21.06.2018 19:00:00 13,8 9,5 12,4 13,5 16,6 17,7 49 26 63 34 WNW 1011,9 18 7 7,5
21.06.2018 18:00:00 12,5 10,4 11,4 13,5 16,9 17,7 49 26 66 36 W 1011,7 7 0 0,5
21.06.2018 17:00:00 10,7 7,6 9,7 14,0 17,2 17,7 51 28 70 38 WNW 1011,9 8 0 1,0
21.06.2018 16:00:00 12,9 8,7 11,5 14,2 17,6 17,7 49 26 61 33 WNW 1010,2 14 0 2,4
21.06.2018 15:00:00 12,0 10,6 11,5 14,4 17,9 17,7 37 20 46 25 NW 1009,8 5 0 2,5
21.06.2018 14:00:00 12,2 10,7 11,4 15,2 18,1 17,6 29 16 65 35 WNW 1009,2 4,2 1 5,1
21.06.2018 13:00:00 14,3 10,7 14,2 16,6 18,2 17,6 29 16 46 25 W 1008,7 27 0 0,4
21.06.2018 12:00:00 13,8 9,7 13,2 16,3 18,4 17,6 23 13 31 17 WNW 1009,1 36 0 0,0
21.06.2018 11:00:00 14,1 8,9 14,7 16,6 18,6 17,6 28 15 35 19 WNW 1009,3 20 0 0,0
21.06.2018 10:00:00 14,1 9,7 14,5 16,5 18,8 17,6 31 17 39 21 WNW 1009,0 19 0 0,0
21.06.2018 09:00:00 14,1 10,5 13,9 16,1 19,1 17,6 32 17 41 22 WNW 1009,6 29 0 0,0
21.06.2018 08:00:00 14,1 10,0 13,4 16,4 19,5 17,6 30 16 47 25 NW 1009,8 29 0 0,0
21.06.2018 07:00:00 14,7 10,8 13,5 16,7 19,9 17,6 37 20 49 26 WNW 1010,4 46 0 0,0
21.06.2018 06:00:00 14,4 12,6 13,7 17,9 20,2 17,6 41 22 49 26 NW 1010,4 15 0 1,7
21.06.2018 05:00:00 16,5 15,7 16,0 18,9 20,5 17,6 28 15 38 21 W 1010,6 6 0 0,3
21.06.2018 04:00:00 16,8 15,5 16,2 19,3 20,7 17,6 30 16 39 21 WSW 1011,4 35 0 0,0
21.06.2018 03:00:00 17,1 16,2 16,7 19,8 21,0 17,6 24 13 42 23 WSW 1011,9 10 0 0,1
21.06.2018 02:00:00 17,8 15,5 17,7 20,1 21,4 17,6 27 14 36 19 WSW 1012,5 21 0 0,0
21.06.2018 01:00:00 18,0 16,1 17,0 20,5 21,7 17,6 23 12 36 20 W 1013,1 19 0 0,0
21.06.2018 00:00:00 18,4 16,1 17,6 21,1 22,1 17,6 24 13 39 21 WSW 1013,6 15 0 0,0
20.06.2018 23:00:00 18,4 16,5 17,7 21,9 22,4 17,6 24 13 34 18 W 1014,2 12 0 0,0
20.06.2018 22:00:00 18,6 16,4 18,2 22,8 22,8 17,6 26 14 43 23 W 1014,5 14 0 0,0
20.06.2018 21:00:00 19,1 16,7 18,9 24,3 23,0 17,6 35 19 46 25 W 1014,4 12 43 0,0
20.06.2018 20:00:00 20,4 17,1 21,3 26,3 23,1 17,6 24 13 30 16 W 1014,4 10 57 0,0
20.06.2018 19:00:00 21,6 16,5 22,5 27,2 23,1 17,6 21 12 27 15 W 1015,0 15 19 0,0
20.06.2018 18:00:00 22,3 17,3 25,7 28,7 22,8 17,6 15 8 26 14 WSW 1015,5 18 27 0,0
20.06.2018 17:00:00 23,9 16,5 27,9 30,6 22,4 17,6 16 9 28 15 WSW 1016,0 7 59 0,0
20.06.2018 16:00:00 23,0 16,4 28,2 30,2 21,9 17,6 16 9 27 15 WSW 1016,5 13 38 0,0
20.06.2018 15:00:00 22,6 16,0 26,2 29,1 21,4 17,6 19 10 30 16 WSW 1017,1 13 10 0,0
20.06.2018 14:00:00 23,6 15,5 28,9 30,8 20,6 17,6 23 12 36 19 WSW 1017,7 10 59 0,0
20.06.2018 13:00:00 23,2 15,2 28,8 29,3 19,9 17,6 18 10 36 19 SW 1018,5 8 60 0,0
20.06.2018 12:00:00 22,2 15,1 27,0 27,2 19,2 17,6 24 13 45 24 SW 1019,0 7 60 0,0
20.06.2018 11:00:00 21,6 15,2 26,1 24,6 18,7 17,6 23 12 37 20 SSW 1019,3 11 41 0,0
20.06.2018 10:00:00 19,2 13,7 23,0 22,1 18,4 17,6 22 12 37 20 S 1019,8 11 21 0,0
20.06.2018 09:00:00 18,0 13,0 20,9 19,9 18,2 17,6 14 7 26 14 SSW 1020,4 24 7 0,0
20.06.2018 08:00:00 15,9 11,7 17,0 18,0 18,3 17,6 13 7 21 12 S 1020,8 36 0 0,0
20.06.2018 07:00:00 14,2 11,0 14,9 17,1 18,4 17,5 13 7 20 11 S 1021,1 31 0 0,0
20.06.2018 06:00:00 13,7 11,4 13,6 16,8 18,6 17,5 10 5 17 9 S 1021,3 25 0 0,0
20.06.2018 05:00:00 14,4 10,9 13,7 16,6 18,8 17,5 14 8 34 18 WSW 1021,4 31 0 0,0
20.06.2018 04:00:00 14,7 10,8 14,0 16,8 19,1 17,5 25 13 39 21 W 1021,5 40 0 0,0
20.06.2018 03:00:00 14,8 10,7 14,1 17,1 19,4 17,5 32 17 40 21 W 1021,7 34 0 0,0
20.06.2018 02:00:00 14,9 10,6 14,0 17,4 19,8 17,5 29 16 41 22 W 1021,9 37 0 0,0
20.06.2018 01:00:00 15,3 10,5 14,5 18,0 20,1 17,5 32 17 43 23 W 1022,0 38 0 0,0
20.06.2018 00:00:00 15,9 11,7 15,4 18,5 20,4 17,5 33 18 44 24 W 1022,1 35 0 0,0
19.06.2018 23:00:00 16,1 10,8 15,3 18,9 20,8 17,5 36 19 48 26 W 1022,1 38 0 0,0
19.06.2018 22:00:00 16,4 9,9 15,7 19,9 21,2 17,6 37 20 49 27 W 1021,7 40 15 0,0
19.06.2018 21:00:00 16,9 9,7 16,8 21,3 21,5 17,6 38 21 48 26 W 1021,4 15 60 0,0
19.06.2018 20:00:00 17,8 10,4 18,3 23,0 21,6 17,6 35 19 46 25 W 1021,0 9 60 0,0
19.06.2018 19:00:00 18,3 11,4 19,2 24,4 21,7 17,6 37 20 50 27 W 1020,9 5 60 0,0
19.06.2018 18:00:00 18,9 12,0 20,3 25,8 21,5 17,6 41 22 49 27 W 1020,5 8 60 0,0
19.06.2018 17:00:00 19,3 12,6 20,9 26,8 21,2 17,6 35 19 46 25 W 1020,4 6 60 0,0
19.06.2018 16:00:00 19,6 13,3 22,7 27,5 20,7 17,6 36 19 42 23 WNW 1019,9 5 60 0,0
19.06.2018 15:00:00 19,4 14,7 22,3 27,2 20,1 17,6 31 17 45 25 W 1019,6 7 60 0,0
19.06.2018 14:00:00 19,4 15,4 23,2 26,3 19,6 17,6 26 14 35 19 W 1019,2 16 52 0,0
19.06.2018 13:00:00 18,8 15,1 21,9 24,6 19,2 17,5 32 17 47 25 W 1019,0 9 44 0,0
19.06.2018 12:00:00 18,2 14,9 20,5 22,6 18,9 17,5 36 19 44 24 W 1018,7 16 10 0,0
19.06.2018 11:00:00 18,1 15,4 20,1 21,0 18,7 17,5 32 18 47 25 W 1018,5 13 0 0,0
19.06.2018 10:00:00 17,8 14,8 19,4 20,5 18,5 17,5 34 18 46 25 W 1018,0 14 4 0,0
19.06.2018 09:00:00 17,3 14,5 18,6 19,4 18,5 17,5 35 19 44 24 WSW 1017,4 10 3 0,0
19.06.2018 08:00:00 16,8 14,1 18,2 18,6 18,5 17,5 26 14 38 20 WSW 1016,8 12 8 0,0
19.06.2018 07:00:00 16,4 14,0 16,7 17,8 18,6 17,5 29 16 41 22 WSW 1016,8 13 0 0,0
19.06.2018 06:00:00 16,2 14,1 16,1 17,4 18,8 17,5 27 15 37 20 WSW 1016,8 13 0 0,0
19.06.2018 05:00:00 15,9 13,9 15,2 17,3 19,0 17,5 23 12 48 26 WSW 1016,5 15 0 0,0
19.06.2018 04:00:00 16,5 13,6 16,0 17,6 19,2 17,5 37 20 53 29 W 1016,7 21 0 0,0
19.06.2018 03:00:00 16,6 13,9 16,0 18,0 19,5 17,5 39 21 49 27 W 1016,7 23 0 0,0
19.06.2018 02:00:00 16,6 14,5 16,2 18,4 19,7 17,5 28 15 41 22 WSW 1016,8 15 0 0,0
19.06.2018 01:00:00 16,8 14,4 16,6 18,7 20,0 17,5 28 15 39 21 WSW 1016,9 21 0 0,0
19.06.2018 00:00:00 17,1 15,0 16,9 19,1 20,2 17,5 24 13 37 20 WSW 1017,1 23 0 0,0
18.06.2018 23:00:00 17,2 15,4 17,0 19,4 20,5 17,5 21 11 32 17 WSW 1016,8 20 0 0,0
18.06.2018 22:00:00 17,3 15,2 17,0 19,9 20,9 17,6 18 10 31 17 SW 1016,7 24 0 0,0
18.06.2018 21:00:00 17,1 15,2 16,4 20,6 21,2 17,6 16 9 32 18 SW 1016,7 39 2 0,0
18.06.2018 20:00:00 16,6 15,2 16,3 21,8 21,5 17,6 22 12 31 17 WSW 1017,1 9 0 0,0
18.06.2018 19:00:00 17,6 15,9 18,2 23,4 21,6 17,6 21 11 31 17 W 1017,0 9 0 0,0
18.06.2018 18:00:00 18,7 14,4 19,8 25,5 21,5 17,6 20 11 36 20 WSW 1017,2 22 17 0,0
18.06.2018 17:00:00 19,3 13,8 23,2 26,3 21,3 17,6 23 12 41 22 SW 1017,5 16 17 0,0
18.06.2018 16:00:00 19,0 13,0 21,5 26,6 21,0 17,6 27 14 40 21 SW 1017,8 16 3 0,0
18.06.2018 15:00:00 20,0 13,0 24,7 27,0 20,7 17,6 22 12 40 22 SW 1017,8 17 17 0,0
18.06.2018 14:00:00 19,4 12,3 22,2 26,6 20,2 17,6 20 11 32 18 WSW 1017,8 26 4 0,0
18.06.2018 13:00:00 19,8 12,1 24,7 27,3 19,7 17,6 16 9 26 14 WSW 1018,0 21 10 0,0
18.06.2018 12:00:00 19,1 11,7 23,9 26,4 19,0 17,6 20 11 30 16 WSW 1017,9 21 16 0,0
18.06.2018 11:00:00 19,2 11,4 24,6 25,4 18,4 17,6 18 10 30 16 SW 1017,9 19 60 0,0
18.06.2018 10:00:00 17,9 11,1 22,1 23,0 18,0 17,6 18 10 31 17 SW 1018,1 8 60 0,0
18.06.2018 09:00:00 17,1 12,7 21,5 20,3 17,8 17,6 16 9 27 15 SW 1017,9 11 55 0,0
18.06.2018 08:00:00 16,0 12,0 17,1 17,3 17,8 17,6 18 10 32 17 SW 1018,2 20 5 0,0
18.06.2018 07:00:00 15,5 11,6 15,7 16,6 17,9 17,6 22 12 31 17 WSW 1018,0 34 0 0,0
18.06.2018 06:00:00 15,6 11,6 15,2 16,2 18,0 17,6 22 12 31 17 WSW 1017,9 31 0 0,0
18.06.2018 05:00:00 15,5 11,5 15,0 16,1 18,2 17,6 18 10 30 16 SW 1017,8 34 0 0,0
18.06.2018 04:00:00 15,7 11,6 15,1 16,4 18,5 17,6 22 12 29 16 WSW 1017,5 30 0 0,0
18.06.2018 03:00:00 15,7 11,5 15,0 16,4 18,7 17,6 20 11 27 15 WSW 1017,9 30 0 0,0
18.06.2018 02:00:00 15,7 10,9 14,3 16,4 19,1 17,6 17 9 26 14 WSW 1017,7 39 0 0,0
18.06.2018 01:00:00 16,0 10,7 14,5 17,0 19,4 17,6 18 10 29 16 WSW 1017,4 42 0 0,0
18.06.2018 00:00:00 16,9 10,8 16,2 17,8 19,7 17,6 25 14 34 19 W 1017,1 47 0 0,0
17.06.2018 23:00:00 17,1 11,1 16,7 18,3 20,0 17,6 27 14 40 22 W 1016,9 46 0 0,0
17.06.2018 22:00:00 17,6 10,1 17,1 19,0 20,3 17,6 27 15 37 20 W 1016,8 54 0 0,0
17.06.2018 21:00:00 17,9 9,4 17,8 20,2 20,5 17,6 29 15 34 18 W 1016,3 59 10 0,0
17.06.2018 20:00:00 18,2 11,2 18,6 21,3 20,6 17,6 28 15 35 19 W 1016,0 44 20 0,0
17.06.2018 19:00:00 18,7 12,0 19,9 22,4 20,6 17,6 27 14 34 18 W 1015,6 20 34 0,0
17.06.2018 18:00:00 18,7 11,4 20,5 22,7 20,7 17,6 29 15 36 19 W 1015,6 17 20 0,0
17.06.2018 17:00:00 17,4 13,6 17,8 21,5 20,9 17,6 31 17 48 26 W 1015,4 23 0 0,0
17.06.2018 16:00:00 18,5 13,7 19,0 24,6 20,7 17,6 29 16 37 20 W 1014,5 28 17 0,0
17.06.2018 15:00:00 19,7 13,7 22,8 26,8 20,2 17,6 26 14 33 18 W 1014,2 16 41 0,0
17.06.2018 14:00:00 19,9 12,1 24,2 26,2 19,8 17,6 21 11 36 19 SW 1013,9 10 38 0,0
17.06.2018 13:00:00 19,4 11,9 21,8 23,7 19,4 17,6 20 11 35 19 SW 1013,7 23 23 0,0
17.06.2018 12:00:00 19,5 12,1 23,7 24,3 19,0 17,6 24 13 35 19 WSW 1013,6 12 60 0,0
17.06.2018 11:00:00 18,2 12,3 21,0 22,1 18,6 17,6 26 14 39 21 WSW 1013,5 18 51 0,0
17.06.2018 10:00:00 18,2 12,9 19,9 21,3 18,4 17,6 22 12 32 18 WSW 1013,4 11 59 0,0
17.06.2018 09:00:00 17,5 14,0 18,9 19,6 18,2 17,6 16 9 23 13 WSW 1013,2 10 28 0,0
17.06.2018 08:00:00 16,4 14,9 16,0 17,7 18,3 17,6 15 8 18 10 WSW 1012,9 7 0 0,0
17.06.2018 07:00:00 15,8 14,0 15,6 17,3 18,4 17,6 6 4 16 9 WSW 1012,9 15 3 0,0
17.06.2018 06:00:00 15,9 14,6 15,3 16,8 18,6 17,6 8 4 16 9 W 1013,0 7 0 0,5
17.06.2018 05:00:00 16,2 14,0 15,2 16,9 18,7 17,5 15 8 31 17 W 1013,2 13 0 0,3
17.06.2018 04:00:00 17,3 16,3 16,7 17,4 18,9 17,5 15 8 20 11 W 1012,8 4,7 0 0,7
17.06.2018 03:00:00 17,2 16,4 16,4 17,1 19,1 17,5 13 7 16 9 WSW 1013,0 4,1 0 0,3
17.06.2018 02:00:00 15,5 14,5 14,7 17,0 19,4 17,5 7 4 12 6 S 1012,6 7 0 0,0
17.06.2018 01:00:00 15,2 14,3 14,4 17,3 19,7 17,5 9 5 14 8 SE 1013,0 7 0 0,0
17.06.2018 00:00:00 16,0 15,4 14,4 17,9 20,0 17,5 5 3 6 3 ENE 1013,3 2,1 0 0,0
16.06.2018 23:00:00 17,6 15,6 15,4 18,5 20,3 17,5 4 2 14 7 W 1013,3 16 0 0,0
16.06.2018 22:00:00 18,0 15,7 16,7 19,8 20,6 17,5 5 3 10 5 SSW 1013,2 18 0 0,0
16.06.2018 21:00:00 18,3 16,5 17,9 20,6 20,7 17,5 8 4 11 6 SE 1013,2 17 0 0,0
16.06.2018 20:00:00 18,9 15,9 19,1 21,5 20,9 17,5 10 5 19 10 E 1013,0 21 13 0,0
16.06.2018 19:00:00 18,1 15,6 18,0 21,2 21,1 17,5 13 7 23 12 ESE 1012,8 25 0 0,0
16.06.2018 18:00:00 17,4 15,5 17,7 21,3 21,4 17,5 17 9 25 14 E 1013,1 26 0 0,1
16.06.2018 17:00:00 16,0 14,9 16,4 22,1 21,5 17,5 11 6 49 26 ESE 1014,2 12 0 4,1
16.06.2018 16:00:00 20,5 14,9 22,2 25,4 21,4 17,5 19 10 32 17 ESE 1014,0 20 0 0,0
16.06.2018 15:00:00 19,3 14,8 19,9 25,7 21,1 17,5 21 11 33 18 E 1014,2 25 2 0,0
16.06.2018 14:00:00 20,3 15,1 23,2 26,3 20,8 17,5 25 14 37 20 E 1014,5 10 0 0,0
16.06.2018 13:00:00 20,7 14,3 24,1 26,6 20,3 17,5 22 12 32 18 ESE 1015,6 25 32 0,0
16.06.2018 12:00:00 20,2 14,2 23,9 25,3 19,9 17,5 19 11 30 16 ESE 1016,0 17 41 0,0
16.06.2018 11:00:00 19,3 13,1 22,8 23,6 19,6 17,5 21 11 29 16 ESE 1016,1 13 45 0,0
16.06.2018 10:00:00 18,5 12,4 20,9 21,6 19,4 17,4 16 9 27 15 ESE 1016,5 16 9 0,0
16.06.2018 09:00:00 18,5 13,9 20,6 20,2 19,4 17,4 18 10 25 14 E 1016,6 11 25 0,0
16.06.2018 08:00:00 16,3 13,2 16,3 18,6 19,5 17,4 7 4 13 7 E 1016,8 32 0 0,0
16.06.2018 07:00:00 16,0 13,2 15,9 18,4 19,7 17,4 10 5 12 7 E 1017,1 31 0 0,0
16.06.2018 06:00:00 14,4 12,0 14,2 18,3 19,9 17,4 8 4 9 5 E 1017,4 29 0 0,0
16.06.2018 05:00:00 14,4 11,7 14,2 18,4 20,1 17,4 7 4 11 6 ESE 1017,4 25 0 0,0
16.06.2018 04:00:00 13,7 11,5 13,4 18,3 20,4 17,4 9 5 11 6 ESE 1017,4 25 0 0,0
16.06.2018 03:00:00 12,6 10,4 11,2 18,1 20,8 17,4 8 5 10 5 ESE 1017,6 24 0 0,0
16.06.2018 02:00:00 11,9 9,6 10,4 18,6 21,2 17,4 8 4 10 5 SE 1017,6 25 0 0,0
16.06.2018 01:00:00 12,2 8,2 10,1 19,3 21,7 17,4 5 3 12 7 SE 1017,6 34 0 0,0
16.06.2018 00:00:00 13,8 8,5 11,4 20,1 22,2 17,4 5 3 7 4 ESE 1017,6 42 0 0,0
15.06.2018 23:00:00 13,2 8,8 11,1 21,2 22,6 17,4 8 4 9 5 SE 1017,8 33 0 0,0
15.06.2018 22:00:00 17,3 9,4 15,1 22,8 22,9 17,4 6 3 7 4 NW 1017,7 40 2 0,0
15.06.2018 21:00:00 18,7 6,4 18,5 25,0 23,1 17,4 3 2 5 3 NW 1017,7 46 48 0,0
15.06.2018 20:00:00 19,3 6,4 20,2 26,7 23,2 17,4 4 2 10 5 WNW 1017,7 48 58 0,0
15.06.2018 19:00:00 19,1 5,9 22,2 28,3 23,1 17,4 6 3 10 5 ENE 1017,6 34 60 0,0

tt = Température de l'air
td = dewpoint
tt 5cm = Température de l'air 5cm
tt -5cm = Température de l'air -5cm
tt -20cm = Température de l'air -20cm
tt -100cm = Température de l'air -100cm
ff = Vitesse du vent
fx = gusts
dd = Direction du vent
ppp = reduced air pressure
vv = visibility
sd = Ensoleillement
rr = Quantités de précipitations

stations d'obs. à proximité